KESWICK RESERVOIR (KES)

Elevation: 596' · SACRAMENTO R basin · Operator: US Bureau of Reclamation

Provisional data, subject to change.
Query executed Friday at 13:46:09   clock

Select a sensor type for a plot of data.
Note: Reservoir Flows are daily averages.

Earlier

Date RES ELE    STORAGE    RES CHG    OUTFLOW    INFLOW   
 FEET   AF   AF   CFS   CFS  
03/20/2014 578.68 18785 -1567 3321 2533
03/21/2014 578.06 18443 -342 3166 2997
03/22/2014 576.99 17862 -581 3072 2782
03/23/2014 577.18 17965 103 3095 3150
03/24/2014 578.68 18785 820 3095 3511
03/25/2014 580.02 19536 751 3077 3459
03/26/2014 581.93 20645 1109 3068 3628
03/27/2014 581.15 20188 -457 2935 2707
03/28/2014 584.16 21989 1801 2863 3771
03/29/2014 585.16 22607 618 2702 3015
03/30/2014 583.39 21520 -1087 2699 2152
03/31/2014 583.88 21817 297 2546 2696
04/01/2014 585.18 22620 803 2502 2907
04/02/2014 585.39 22752 132 2626 2694
04/03/2014 585.65 22915 163 2663 2747
04/04/2014 585.97 23116 201 2692 2793
04/05/2014 584.65 22291 -825 2664 2249
04/06/2014 583.22 21417 -874 2736 2298
04/07/2014 585.69 22940 1523 2730 3501
04/08/2014 584.17 21995 -945 2693 2221
04/09/2014 583.62 21659 -336 2697 2532
04/10/2014 582.31 20871 -788 2688 2294
04/11/2014 581.32 20288 -583 2672 2382
04/12/2014 579.93 19485 -803 2575 2173
04/13/2014 580.36 19731 246 2500 2628
04/14/2014 579.74 19378 -353 2489 2315
04/15/2014 580.69 19921 543 2512 2790
04/16/2014 579.89 19462 -459 2952 2725
04/17/2014 579.06 18996 -466 3018 2787
04/18/2014 -- -- -- -- --

Later | Latest

Warning! This data is preliminary and subject to revision.

Download Data Now Download Data Now | Show KES Map | Plot KES Data | 1 Month KES Data | Real-Time KES Data | KES Info